| time (UTC) | temp C | wind direction | speed KPH | gust KPH | rain 1hr cm | rain 24hr cm | rain mn cm | humidity % | barometer mb |
| 20260906194528 | 40 | 98 | 0.0 | 6.4 | 0.00 | 0.00 | 0.00 | 33 | 1010.1 |
| 20260906193027 | 40 | 96 | 0.0 | 3.2 | 0.00 | 0.00 | 0.00 | 33 | 1010.2 |
| 20260906191531 | 40 | 136 | 0.0 | 1.6 | 0.00 | 0.00 | 0.00 | 32 | 1010.5 |
| 20260906190031 | 40 | 108 | 0.0 | 12.9 | 0.00 | 0.00 | 0.00 | 32 | 1010.7 |
| 20260906184520 | 39 | 105 | 0.0 | 8.0 | 0.00 | 0.00 | 0.00 | 33 | 1010.8 |
| 20260906183020 | 39 | 103 | 1.6 | 11.3 | 0.00 | 0.00 | 0.00 | 33 | 1011.1 |
| 20260906181531 | 38 | 176 | 0.0 | 4.8 | 0.00 | 0.00 | 0.00 | 34 | 1011.4 |
| 20260906180017 | 39 | 151 | 0.0 | 6.4 | 0.00 | 0.00 | 0.00 | 34 | 1011.7 |
| 20260906174516 | 39 | 96 | 0.0 | 6.4 | 0.00 | 0.00 | 0.00 | 35 | 1011.9 |
| 20260906173014 | 39 | 120 | 0.0 | 1.6 | 0.00 | 0.00 | 0.00 | 37 | 1012.2 |
| 20260906171513 | 38 | 93 | 0.0 | 4.8 | 0.00 | 0.00 | 0.00 | 37 | 1012.4 |
| 20260906170010 | 38 | 154 | 0.0 | 0.0 | 0.00 | 0.00 | 0.00 | 39 | 1012.6 |
| 20260906164505 | 37 | 134 | 0.0 | 1.6 | 0.00 | 0.00 | 0.00 | 42 | 1012.9 |
| 20260906163002 | 37 | 167 | 0.0 | 0.0 | 0.00 | 0.00 | 0.00 | 44 | 1013.0 |
| 20260906161558 | 36 | 99 | 0.0 | 0.0 | 0.00 | 0.00 | 0.00 | 47 | 1012.9 |
| 20260906160054 | 35 | 101 | 0.0 | 0.0 | 0.00 | 0.00 | 0.00 | 51 | 1013.0 |
| 20260906154555 | 34 | 135 | 0.0 | 0.0 | 0.00 | 0.00 | 0.00 | 51 | 1013.0 |
| 20260906153045 | 33 | 135 | 0.0 | 1.6 | 0.00 | 0.00 | 0.00 | 52 | 1012.9 |
| 20260906151542 | 33 | 135 | 0.0 | 1.6 | 0.00 | 0.00 | 0.00 | 55 | 1012.9 |
| 20260906150038 | 32 | 150 | 0.0 | 0.0 | 0.00 | 0.00 | 0.00 | 58 | 1012.8 |
| 20260906144535 | 31 | 151 | 0.0 | 0.0 | 0.00 | 0.00 | 0.00 | 61 | 1012.8 |
| 20260906143033 | 30 | 154 | 0.0 | 0.0 | 0.00 | 0.00 | 0.00 | 64 | 1012.7 |
| 20260906141524 | 28 | 154 | 0.0 | 0.0 | 0.00 | 0.00 | 0.00 | 66 | 1012.8 |
| 20260906140038 | 27 | 155 | 0.0 | 0.0 | 0.00 | 0.00 | 0.00 | 70 | 1012.6 |
| 20260906134517 | 26 | 92 | 0.0 | 0.0 | 0.00 | 0.00 | 0.00 | 75 | 1012.5 |
| 20260906133015 | 26 | 92 | 0.0 | 0.0 | 0.00 | 0.00 | 0.00 | 77 | 1012.5 |
| 20260906131517 | 25 | 92 | 0.0 | 0.0 | 0.00 | 0.00 | 0.00 | 83 | 1012.5 |
| 20260906130028 | 25 | 92 | 0.0 | 0.0 | 0.00 | 0.00 | 0.00 | 85 | 1012.6 |
| 20260906124509 | 23 | 96 | 0.0 | 0.0 | 0.00 | 0.00 | 0.00 | 87 | 1012.3 |
| 20260906123014 | 23 | 96 | 0.0 | 0.0 | 0.00 | 0.00 | 0.00 | 87 | 1012.2 |
| 20260906121506 | 23 | 96 | 0.0 | 0.0 | 0.00 | 0.00 | 0.00 | 87 | 1012.0 |
| 20260906120003 | 23 | 96 | 0.0 | 1.6 | 0.00 | 0.00 | 0.00 | 87 | 1011.8 |
| 20260906114600 | 23 | 97 | 0.0 | 0.0 | 0.00 | 0.00 | 0.00 | 87 | 1011.7 |
| 20260906113058 | 23 | 97 | 0.0 | 0.0 | 0.00 | 0.00 | 0.00 | 87 | 1011.5 |
| 20260906111557 | 23 | 97 | 0.0 | 0.0 | 0.00 | 0.00 | 0.00 | 86 | 1011.4 |
| 20260906110054 | 24 | 97 | 0.0 | 0.0 | 0.00 | 0.00 | 0.00 | 86 | 1011.3 |
| 20260906104553 | 24 | 97 | 0.0 | 0.0 | 0.00 | 0.00 | 0.00 | 86 | 1011.3 |
| 20260906103054 | 24 | 97 | 0.0 | 0.0 | 0.00 | 0.00 | 0.00 | 85 | 1011.3 |
| 20260906101552 | 24 | 97 | 0.0 | 0.0 | 0.00 | 0.00 | 0.00 | 84 | 1011.3 |
| 20260906100051 | 24 | 97 | 0.0 | 0.0 | 0.00 | 0.00 | 0.00 | 84 | 1011.3 |
| 20260906094550 | 24 | 97 | 0.0 | 0.0 | 0.00 | 0.00 | 0.00 | 84 | 1011.3 |
| 20260906093053 | 24 | 97 | 0.0 | 0.0 | 0.00 | 0.00 | 0.00 | 83 | 1011.1 |
| 20260906091547 | 24 | 97 | 0.0 | 0.0 | 0.00 | 0.00 | 0.00 | 83 | 1011.1 |
| 20260906090045 | 25 | 97 | 0.0 | 0.0 | 0.00 | 0.00 | 0.00 | 84 | 1011.0 |
| 20260906084543 | 25 | 97 | 0.0 | 0.0 | 0.00 | 0.00 | 0.00 | 84 | 1011.0 |
| 20260906083048 | 25 | 97 | 0.0 | 0.0 | 0.00 | 0.00 | 0.00 | 83 | 1010.8 |
| 20260906081543 | 25 | 97 | 0.0 | 0.0 | 0.00 | 0.00 | 0.00 | 82 | 1010.7 |
| 20260906080039 | 25 | 97 | 0.0 | 0.0 | 0.00 | 0.00 | 0.00 | 82 | 1010.8 |
| 20260906074538 | 25 | 97 | 0.0 | 0.0 | 0.00 | 0.00 | 0.00 | 81 | 1010.7 |
| 20260906073037 | 25 | 97 | 0.0 | 0.0 | 0.00 | 0.00 | 0.00 | 81 | 1010.5 |
| 20260906071540 | 25 | 97 | 0.0 | 0.0 | 0.00 | 0.00 | 0.00 | 80 | 1010.8 |
| 20260906070034 | 26 | 97 | 0.0 | 0.0 | 0.00 | 0.00 | 0.00 | 80 | 1010.9 |
| 20260906064535 | 26 | 97 | 0.0 | 0.0 | 0.00 | 0.00 | 0.00 | 79 | 1010.7 |
| 20260906063030 | 26 | 97 | 0.0 | 0.0 | 0.00 | 0.00 | 0.00 | 78 | 1010.7 |
| 20260906061529 | 26 | 97 | 0.0 | 0.0 | 0.00 | 0.00 | 0.00 | 77 | 1010.8 |
| 20260906060029 | 26 | 97 | 0.0 | 0.0 | 0.00 | 0.00 | 0.00 | 76 | 1010.9 |
| 20260906054524 | 26 | 97 | 0.0 | 0.0 | 0.00 | 0.00 | 0.00 | 75 | 1010.8 |
| 20260906053027 | 27 | 97 | 0.0 | 0.0 | 0.00 | 0.00 | 0.00 | 74 | 1010.6 |
| 20260906051529 | 27 | 97 | 0.0 | 0.0 | 0.00 | 0.00 | 0.00 | 73 | 1010.6 |
| 20260906050044 | 27 | 97 | 0.0 | 0.0 | 0.00 | 0.00 | 0.00 | 72 | 1010.5 |
| 20260906044516 | 27 | 97 | 0.0 | 0.0 | 0.00 | 0.00 | 0.00 | 72 | 1010.6 |
| 20260906043016 | 27 | 97 | 0.0 | 0.0 | 0.00 | 0.00 | 0.00 | 70 | 1010.5 |
| 20260906041517 | 27 | 97 | 0.0 | 0.0 | 0.00 | 0.00 | 0.00 | 69 | 1010.5 |
| 20260906040015 | 28 | 97 | 0.0 | 0.0 | 0.00 | 0.00 | 0.00 | 67 | 1010.5 |
| 20260906034514 | 28 | 97 | 0.0 | 0.0 | 0.00 | 0.00 | 0.00 | 66 | 1010.5 |
| 20260906033016 | 28 | 97 | 0.0 | 0.0 | 0.00 | 0.00 | 0.00 | 65 | 1010.3 |
| 20260906031519 | 29 | 97 | 0.0 | 0.0 | 0.00 | 0.00 | 0.00 | 64 | 1010.4 |
| 20260906030011 | 29 | 97 | 0.0 | 0.0 | 0.00 | 0.00 | 0.00 | 63 | 1010.4 |
| 20260906024510 | 30 | 97 | 0.0 | 0.0 | 0.00 | 0.00 | 0.00 | 62 | 1010.1 |
| 20260906023010 | 30 | 97 | 0.0 | 0.0 | 0.00 | 0.00 | 0.00 | 60 | 1010.0 |
| 20260906021511 | 30 | 97 | 0.0 | 0.0 | 0.00 | 0.00 | 0.00 | 59 | 1009.6 |
| 20260906020011 | 31 | 97 | 0.0 | 0.0 | 0.00 | 0.00 | 0.00 | 56 | 1009.6 |
| 20260906014511 | 31 | 97 | 0.0 | 0.0 | 0.00 | 0.00 | 0.00 | 53 | 1009.5 |
| 20260906013011 | 32 | 97 | 0.0 | 0.0 | 0.00 | 0.00 | 0.00 | 50 | 1009.3 |
| 20260906011508 | 33 | 97 | 0.0 | 0.0 | 0.00 | 0.00 | 0.00 | 47 | 1009.2 |
| 20260906010008 | 34 | 97 | 0.0 | 0.0 | 0.00 | 0.00 | 0.00 | 43 | 1009.1 |
| 20260906004508 | 35 | 97 | 0.0 | 0.0 | 0.00 | 0.00 | 0.00 | 39 | 1009.0 |
| 20260906003007 | 36 | 99 | 0.0 | 1.6 | 0.00 | 0.00 | 0.00 | 38 | 1009.0 |
| 20260906001506 | 36 | 179 | 0.0 | 1.6 | 0.00 | 0.00 | 0.00 | 37 | 1009.0 |
| 20260906000006 | 36 | 177 | 0.0 | 1.6 | 0.00 | 0.00 | 0.00 | 37 | 1008.9 |
| 20260905234504 | 37 | 96 | 0.0 | 1.6 | 0.00 | 0.00 | 0.00 | 36 | 1008.8 |
| 20260905233005 | 37 | 100 | 0.0 | 4.8 | 0.00 | 0.00 | 0.00 | 35 | 1008.7 |
| 20260905231504 | 38 | 96 | 0.0 | 8.0 | 0.00 | 0.00 | 0.00 | 35 | 1008.7 |
| 20260905230004 | 39 | 97 | 0.0 | 4.8 | 0.00 | 0.00 | 0.00 | 33 | 1008.6 |
| 20260905224608 | 38 | 96 | 0.0 | 3.2 | 0.00 | 0.00 | 0.00 | 35 | 1008.7 |
| 20260905223057 | 38 | 91 | 0.0 | 9.7 | 0.00 | 0.00 | 0.00 | 36 | 1008.8 |
| 20260905221556 | 37 | 92 | 0.0 | 11.3 | 0.00 | 0.00 | 0.00 | 36 | 1008.8 |
| 20260905220056 | 37 | 177 | 0.0 | 9.7 | 0.00 | 0.00 | 0.00 | 37 | 1008.9 |
| 20260905214604 | 37 | 98 | 1.6 | 8.0 | 0.00 | 0.00 | 0.00 | 37 | 1009.2 |
| 20260905213051 | 37 | 100 | 1.6 | 11.3 | 0.00 | 0.00 | 0.00 | 37 | 1009.3 |
| 20260905211550 | 38 | 96 | 0.0 | 8.0 | 0.00 | 0.00 | 0.00 | 36 | 1009.4 |
| 20260905210049 | 38 | 96 | 4.8 | 12.9 | 0.00 | 0.00 | 0.00 | 36 | 1009.7 |
| 20260905204546 | 37 | 94 | 0.0 | 1.6 | 0.00 | 0.00 | 0.00 | 37 | 1009.9 |
| 20260905203044 | 38 | 95 | 0.0 | 11.3 | 0.00 | 0.00 | 0.00 | 36 | 1010.2 |
| 20260905201542 | 37 | 170 | 0.0 | 12.9 | 0.00 | 0.00 | 0.00 | 37 | 1010.4 |
| 20260905200045 | 38 | 129 | 0.0 | 8.0 | 0.00 | 0.00 | 0.00 | 37 | 1010.6 |